Regional Weather Roundup
Issued by NWS

Home | Current Version | Previous Version | Text Only | Print | Product List | Glossary Off
Versions: 1 2 3 4 5 6 7 8 9 10 11 12 13 14 15 16 17 18 19 20 21 22 23 24 25 26 27 28 29 30 31 32 33 34 35 36 37 38 39 40 41 42 43 44 45 46 47 48 49 50

000
ASUS43 KFSD 200210
RWRSD

WEATHER ROUNDUP FOR SOUTH DAKOTA
NATIONAL WEATHER SERVICE SIOUX FALLS SD
900 PM CDT TUE AUG 19 2014

NOTE: "FAIR" INDICATES FEW OR NO CLOUDS BELOW 12,000 FEET WITH NO
SIGNIFICANT WEATHER AND/OR OBSTRUCTIONS TO VISIBILITY.


SDZ001>005-009-010-012>017-200300-
NORTHWEST AND NORTH CENTRAL SOUTH DAKOTA

CITY           SKY/WX    TMP DP  RH WIND       PRES   REMARKS
BUFFALO          N/A     78  55  44 SE14      29.67S
FAITH            N/A     77  58  51 SE10      29.74S
MOBRIDGE       MOCLDY    74  64  71 E12       29.71S
$$

SDZ012>016-024>037-041>051-057-063-072>074-200300-
SOUTHWEST AND SOUTH CENTRAL SOUTH DAKOTA

CITY           SKY/WX    TMP DP  RH WIND       PRES   REMARKS
RAPID CTY ARPT PTCLDY    71  62  73 E3        29.74R
PIERRE         MOCLDY    80  60  50 SE12      29.72R
CUSTER         MOCLDY    72  54  53 NE3       29.91S
ELLSWORTH AFB  PTCLDY    78  60  54 E9        29.75R
PHILIP           N/A     80  59  48 E14       29.71R
PINE RIDGE     LGT RAIN  71  61  70 E12       29.74R
WINNER         FAIR      78  64  61 SE12      29.75S
$$

SDZ004>011-016>023-039-040-200300-
NORTHEAST SOUTH DAKOTA

CITY           SKY/WX    TMP DP  RH WIND       PRES   REMARKS
ABERDEEN       PTCLDY    69  66  90 S6        29.76R
WATERTOWN      CLEAR     69  62  78 SW5       29.80R
SISSETON         N/A     70  66  87 S5        29.76R
$$

SDZ017-020-022-023-036>040-048>070-200300-
SOUTHEAST SOUTH DAKOTA

CITY           SKY/WX    TMP DP  RH WIND       PRES   REMARKS
SIOUX FALLS    PTCLDY    76  62  62 S3        29.80R
HURON          PTCLDY    75  62  64 SE7       29.76R
CHAMBERLAIN    MOCLDY    73  65  76 SE8       29.76S
MITCHELL       CLEAR     72  64  76 SE6       29.78R
YANKTON        PTCLDY    73  64  73 E6        29.79R
$$

ABBREVIATIONS USED IN REMARKS
   TC - TEMPERATURE IN CELSIUS
  WCI - WIND CHILL INDEX
   HX - HEAT INDEX
  VSB - VISIBILITY




USA.gov is the U.S. government's official web portal to all federal, state and local government web resources and services.